owner,sensor,date,latitude,longitude,vertical_datum,wind_speed,wind_to_direction,wind_speed_of_gust,qcFlag 
TCOON,ioos:station:TCOON:524:1,2017-01-01T00:06:00Z,29.8672,-93.9310,0.0,1.0,122.0,1.2,'11111222,11111222,11111222' 
TCOON,ioos:station:TCOON:524:1,2017-01-01T00:12:00Z,29.8672,-93.9310,0.0,0.0,133.0,1.2,'11111222,11111222,11111222' 
TCOON,ioos:station:TCOON:524:1,2017-01-01T00:18:00Z,29.8672,-93.9310,0.0,0.3,81.0,0.4,'11111222,11111222,11111222' 
TCOON,ioos:station:TCOON:524:1,2017-01-01T00:24:00Z,29.8672,-93.9310,0.0,0.3,81.0,0.4,'1111122,1111122,1111122' 
TCOON,ioos:station:TCOON:524:1,2017-01-01T00:30:00Z,29.8672,-93.9310,0.0,1.3,124.0,1.7,'11111222,11111222,11111222' 
TCOON,ioos:station:TCOON:524:1,2017-01-01T00:36:00Z,29.8672,-93.9310,0.0,0.5,50.0,1.6,'11111222,11111222,11111222' 
TCOON,ioos:station:TCOON:524:1,2017-01-01T00:42:00Z,29.8672,-93.9310,0.0,1.1,109.0,1.4,'11111222,11111222,11111222' 
TCOON,ioos:station:TCOON:524:1,2017-01-01T00:48:00Z,29.8672,-93.9310,0.0,1.3,116.0,1.7,'11111222,11111222,11111222' 
TCOON,ioos:station:TCOON:524:1,2017-01-01T00:54:00Z,29.8672,-93.9310,0.0,0.6,70.0,1.1,'11111222,11111222,11111222' 
TCOON,ioos:station:TCOON:524:1,2017-01-01T01:00:00Z,29.8672,-93.9310,0.0,0.8,107.0,1.0,'11111222,11111222,11111222' 
TCOON,ioos:station:TCOON:524:1,2017-01-01T01:06:00Z,29.8672,-93.9310,0.0,0.8,92.0,1.2,'11111222,11111222,11111222' 
TCOON,ioos:station:TCOON:524:1,2017-01-01T01:12:00Z,29.8672,-93.9310,0.0,1.2,89.0,1.5,'11111222,11111222,11111222' 
TCOON,ioos:station:TCOON:524:1,2017-01-01T01:18:00Z,29.8672,-93.9310,0.0,1.2,89.0,1.5,'1111122,1111122,1111122' 
TCOON,ioos:station:TCOON:524:1,2017-01-01T01:24:00Z,29.8672,-93.9310,0.0,1.2,105.0,1.5,'11111222,11111222,11111222' 
TCOON,ioos:station:TCOON:524:1,2017-01-01T01:30:00Z,29.8672,-93.9310,0.0,1.5,107.0,1.8,'11111222,11111222,11111222' 
TCOON,ioos:station:TCOON:524:1,2017-01-01T01:36:00Z,29.8672,-93.9310,0.0,1.0,107.0,1.6,'11111222,11111222,11111222' 
TCOON,ioos:station:TCOON:524:1,2017-01-01T01:42:00Z,29.8672,-93.9310,0.0,0.6,111.0,1.5,'11111222,11111222,11111222' 
TCOON,ioos:station:TCOON:524:1,2017-01-01T01:48:00Z,29.8672,-93.9310,0.0,0.4,85.0,1.4,'11111222,11111222,11111222' 
TCOON,ioos:station:TCOON:524:1,2017-01-01T01:54:00Z,29.8672,-93.9310,0.0,0.8,97.0,1.5,'11111222,11111222,11111222' 
TCOON,ioos:station:TCOON:524:1,2017-01-01T02:00:00Z,29.8672,-93.9310,0.0,0.6,90.0,1.5,'11111222,11111222,11111222' 
TCOON,ioos:station:TCOON:524:1,2017-01-01T02:06:00Z,29.8672,-93.9310,0.0,1.4,104.0,1.8,'11111222,11111222,11111222' 
TCOON,ioos:station:TCOON:524:1,2017-01-01T02:12:00Z,29.8672,-93.9310,0.0,1.5,108.0,1.8,'11111222,11111222,11111222' 
TCOON,ioos:station:TCOON:524:1,2017-01-01T02:18:00Z,29.8672,-93.9310,0.0,1.5,108.0,1.8,'1111122,1111122,1111122' 
TCOON,ioos:station:TCOON:524:1,2017-01-01T02:24:00Z,29.8672,-93.9310,0.0,1.5,108.0,2.2,'11111222,11111222,11111222' 
TCOON,ioos:station:TCOON:524:1,2017-01-01T02:30:00Z,29.8672,-93.9310,0.0,1.1,133.0,1.7,'11111222,11111222,11111222' 
TCOON,ioos:station:TCOON:524:1,2017-01-01T02:36:00Z,29.8672,-93.9310,0.0,1.4,151.0,2.0,'11111222,11111222,11111222' 
TCOON,ioos:station:TCOON:524:1,2017-01-01T02:42:00Z,29.8672,-93.9310,0.0,1.8,150.0,2.4,'11111222,11111222,11111222' 
TCOON,ioos:station:TCOON:524:1,2017-01-01T02:48:00Z,29.8672,-93.9310,0.0,2.5,156.0,3.2,'11111222,11111222,11111222' 
TCOON,ioos:station:TCOON:524:1,2017-01-01T02:54:00Z,29.8672,-93.9310,0.0,2.5,157.0,3.1,'11111222,11111222,11111222' 
TCOON,ioos:station:TCOON:524:1,2017-01-01T03:00:00Z,29.8672,-93.9310,0.0,2.2,160.0,3.2,'11111222,11111222,11111222' 
TCOON,ioos:station:TCOON:524:1,2017-01-01T03:06:00Z,29.8672,-93.9310,0.0,2.0,157.0,3.1,'11111222,11111222,11111222' 
TCOON,ioos:station:TCOON:524:1,2017-01-01T03:12:00Z,29.8672,-93.9310,0.0,2.6,152.0,3.5,'11111222,11111222,11111222' 
TCOON,ioos:station:TCOON:524:1,2017-01-01T03:18:00Z,29.8672,-93.9310,0.0,2.6,152.0,3.5,'1111122,1111122,1111122' 
TCOON,ioos:station:TCOON:524:1,2017-01-01T03:24:00Z,29.8672,-93.9310,0.0,2.0,161.0,3.2,'11111222,11111222,11111222' 
TCOON,ioos:station:TCOON:524:1,2017-01-01T03:30:00Z,29.8672,-93.9310,0.0,1.8,155.0,2.4,'11111222,11111222,11111222' 
TCOON,ioos:station:TCOON:524:1,2017-01-01T03:36:00Z,29.8672,-93.9310,0.0,1.2,148.0,2.7,'11111222,11111222,11111222' 
TCOON,ioos:station:TCOON:524:1,2017-01-01T03:42:00Z,29.8672,-93.9310,0.0,1.4,171.0,2.1,'11111222,11111222,11111222' 
TCOON,ioos:station:TCOON:524:1,2017-01-01T03:48:00Z,29.8672,-93.9310,0.0,1.3,178.0,2.5,'11111222,11111222,11111222' 
TCOON,ioos:station:TCOON:524:1,2017-01-01T03:54:00Z,29.8672,-93.9310,0.0,1.2,186.0,1.9,'11111222,11111222,11111222' 
TCOON,ioos:station:TCOON:524:1,2017-01-01T04:00:00Z,29.8672,-93.9310,0.0,1.2,197.0,2.0,'11111222,11111222,11111222' 
TCOON,ioos:station:TCOON:524:1,2017-01-01T04:06:00Z,29.8672,-93.9310,0.0,1.5,170.0,2.4,'11111222,11111222,11111222' 
TCOON,ioos:station:TCOON:524:1,2017-01-01T04:12:00Z,29.8672,-93.9310,0.0,1.5,170.0,2.0,'11111222,11111222,11111222' 
TCOON,ioos:station:TCOON:524:1,2017-01-01T04:18:00Z,29.8672,-93.9310,0.0,1.4,167.0,2.1,'11111222,11111222,11111222' 
TCOON,ioos:station:TCOON:524:1,2017-01-01T04:24:00Z,29.8672,-93.9310,0.0,1.9,163.0,2.8,'11111222,11111222,11111222' 
TCOON,ioos:station:TCOON:524:1,2017-01-01T04:30:00Z,29.8672,-93.9310,0.0,1.9,163.0,2.8,'1111122,1111122,1111122' 
TCOON,ioos:station:TCOON:524:1,2017-01-01T04:36:00Z,29.8672,-93.9310,0.0,2.2,156.0,3.2,'11111222,11111222,11111222' 
TCOON,ioos:station:TCOON:524:1,2017-01-01T04:42:00Z,29.8672,-93.9310,0.0,1.7,163.0,3.0,'11111222,11111222,11111222' 
TCOON,ioos:station:TCOON:524:1,2017-01-01T04:48:00Z,29.8672,-93.9310,0.0,1.4,191.0,2.1,'11111222,11111222,11111222' 
TCOON,ioos:station:TCOON:524:1,2017-01-01T04:54:00Z,29.8672,-93.9310,0.0,1.8,191.0,2.4,'11111222,11111222,11111222' 
TCOON,ioos:station:TCOON:524:1,2017-01-01T05:00:00Z,29.8672,-93.9310,0.0,1.6,194.0,2.7,'11111222,11111222,11111222' 
TCOON,ioos:station:TCOON:524:1,2017-01-01T05:06:00Z,29.8672,-93.9310,0.0,2.2,192.0,2.6,'11111222,11111222,11111222' 
TCOON,ioos:station:TCOON:524:1,2017-01-01T05:12:00Z,29.8672,-93.9310,0.0,1.9,191.0,3.1,'11111222,11111222,11111222' 
TCOON,ioos:station:TCOON:524:1,2017-01-01T05:18:00Z,29.8672,-93.9310,0.0,2.0,194.0,2.7,'11111222,11111222,11111222' 
TCOON,ioos:station:TCOON:524:1,2017-01-01T05:24:00Z,29.8672,-93.9310,0.0,2.0,194.0,2.7,'1111122,1111122,1111122' 
TCOON,ioos:station:TCOON:524:1,2017-01-01T05:30:00Z,29.8672,-93.9310,0.0,1.3,184.0,2.1,'11111222,11111222,11111222' 
TCOON,ioos:station:TCOON:524:1,2017-01-01T05:36:00Z,29.8672,-93.9310,0.0,1.7,196.0,2.3,'11111222,11111222,11111222' 
TCOON,ioos:station:TCOON:524:1,2017-01-01T05:42:00Z,29.8672,-93.9310,0.0,1.6,195.0,2.0,'11111222,11111222,11111222' 
TCOON,ioos:station:TCOON:524:1,2017-01-01T05:48:00Z,29.8672,-93.9310,0.0,1.8,194.0,2.3,'11111222,11111222,11111222' 
TCOON,ioos:station:TCOON:524:1,2017-01-01T05:54:00Z,29.8672,-93.9310,0.0,1.4,214.0,2.6,'11111222,11111222,11111222' 
TCOON,ioos:station:TCOON:524:1,2017-01-01T06:00:00Z,29.8672,-93.9310,0.0,0.9,249.0,1.7,'11111222,11111222,11111222' 
TCOON,ioos:station:TCOON:524:1,2017-01-01T06:06:00Z,29.8672,-93.9310,0.0,0.7,255.0,1.0,'11111222,11111222,11111222' 
TCOON,ioos:station:TCOON:524:1,2017-01-01T06:12:00Z,29.8672,-93.9310,0.0,0.8,233.0,1.2,'11111222,11111222,11111222' 
TCOON,ioos:station:TCOON:524:1,2017-01-01T06:18:00Z,29.8672,-93.9310,0.0,0.8,233.0,1.2,'1111122,1111122,1111122' 
TCOON,ioos:station:TCOON:524:1,2017-01-01T06:24:00Z,29.8672,-93.9310,0.0,1.9,204.0,3.3,'11111222,11111222,11111222' 
TCOON,ioos:station:TCOON:524:1,2017-01-01T06:30:00Z,29.8672,-93.9310,0.0,2.3,191.0,3.1,'11111222,11111222,11111222' 
TCOON,ioos:station:TCOON:524:1,2017-01-01T06:36:00Z,29.8672,-93.9310,0.0,2.0,204.0,3.1,'11111222,11111222,11111222' 
TCOON,ioos:station:TCOON:524:1,2017-01-01T06:42:00Z,29.8672,-93.9310,0.0,2.0,201.0,2.9,'11111222,11111222,11111222' 
TCOON,ioos:station:TCOON:524:1,2017-01-01T06:48:00Z,29.8672,-93.9310,0.0,2.8,190.0,3.6,'11111222,11111222,11111222' 
TCOON,ioos:station:TCOON:524:1,2017-01-01T06:54:00Z,29.8672,-93.9310,0.0,2.5,188.0,3.3,'11111222,11111222,11111222' 
TCOON,ioos:station:TCOON:524:1,2017-01-01T07:00:00Z,29.8672,-93.9310,0.0,1.7,202.0,2.9,'11111222,11111222,11111222' 
TCOON,ioos:station:TCOON:524:1,2017-01-01T07:06:00Z,29.8672,-93.9310,0.0,1.9,200.0,2.3,'11111222,11111222,11111222' 
TCOON,ioos:station:TCOON:524:1,2017-01-01T07:12:00Z,29.8672,-93.9310,0.0,2.3,189.0,2.7,'11111222,11111222,11111222' 
TCOON,ioos:station:TCOON:524:1,2017-01-01T07:18:00Z,29.8672,-93.9310,0.0,2.3,189.0,2.7,'1111122,1111122,1111122' 
TCOON,ioos:station:TCOON:524:1,2017-01-01T07:24:00Z,29.8672,-93.9310,0.0,1.6,194.0,2.9,'11111222,11111222,11111222' 
TCOON,ioos:station:TCOON:524:1,2017-01-01T07:30:00Z,29.8672,-93.9310,0.0,1.4,196.0,1.8,'11111222,11111222,11111222' 
TCOON,ioos:station:TCOON:524:1,2017-01-01T07:36:00Z,29.8672,-93.9310,0.0,1.3,202.0,1.8,'11111222,11111222,11111222' 
TCOON,ioos:station:TCOON:524:1,2017-01-01T07:42:00Z,29.8672,-93.9310,0.0,1.6,205.0,1.8,'11111222,11111222,11111222' 
TCOON,ioos:station:TCOON:524:1,2017-01-01T07:48:00Z,29.8672,-93.9310,0.0,1.2,252.0,1.7,'11111222,11111222,11111222' 
TCOON,ioos:station:TCOON:524:1,2017-01-01T07:54:00Z,29.8672,-93.9310,0.0,0.7,218.0,1.6,'11111222,11111222,11111222' 
TCOON,ioos:station:TCOON:524:1,2017-01-01T08:00:00Z,29.8672,-93.9310,0.0,1.5,187.0,2.1,'11111222,11111222,11111222' 
TCOON,ioos:station:TCOON:524:1,2017-01-01T08:06:00Z,29.8672,-93.9310,0.0,1.7,199.0,2.9,'11111222,11111222,11111222' 
TCOON,ioos:station:TCOON:524:1,2017-01-01T08:12:00Z,29.8672,-93.9310,0.0,1.8,191.0,2.4,'11111222,11111222,11111222' 
TCOON,ioos:station:TCOON:524:1,2017-01-01T08:18:00Z,29.8672,-93.9310,0.0,1.8,191.0,2.4,'1111122,1111122,1111122' 
TCOON,ioos:station:TCOON:524:1,2017-01-01T08:24:00Z,29.8672,-93.9310,0.0,1.8,169.0,2.7,'11111222,11111222,11111222' 
TCOON,ioos:station:TCOON:524:1,2017-01-01T08:30:00Z,29.8672,-93.9310,0.0,1.6,165.0,2.4,'11111222,11111222,11111222' 
TCOON,ioos:station:TCOON:524:1,2017-01-01T08:36:00Z,29.8672,-93.9310,0.0,1.7,180.0,2.3,'11111222,11111222,11111222' 
TCOON,ioos:station:TCOON:524:1,2017-01-01T08:42:00Z,29.8672,-93.9310,0.0,1.7,173.0,2.4,'11111222,11111222,11111222' 
TCOON,ioos:station:TCOON:524:1,2017-01-01T08:48:00Z,29.8672,-93.9310,0.0,2.1,169.0,3.2,'11111222,11111222,11111222' 
TCOON,ioos:station:TCOON:524:1,2017-01-01T08:54:00Z,29.8672,-93.9310,0.0,2.0,176.0,3.0,'11111222,11111222,11111222' 
TCOON,ioos:station:TCOON:524:1,2017-01-01T09:00:00Z,29.8672,-93.9310,0.0,1.3,192.0,2.5,'11111222,11111222,11111222' 
TCOON,ioos:station:TCOON:524:1,2017-01-01T09:06:00Z,29.8672,-93.9310,0.0,1.0,193.0,1.5,'11111222,11111222,11111222' 
TCOON,ioos:station:TCOON:524:1,2017-01-01T09:12:00Z,29.8672,-93.9310,0.0,0.6,188.0,1.7,'11111222,11111222,11111222' 
TCOON,ioos:station:TCOON:524:1,2017-01-01T09:18:00Z,29.8672,-93.9310,0.0,0.0,216.0,0.9,'11111222,11111222,11111222' 
TCOON,ioos:station:TCOON:524:1,2017-01-01T09:24:00Z,29.8672,-93.9310,0.0,0.0,216.0,0.9,'1114422,1111122,1111122' 
TCOON,ioos:station:TCOON:524:1,2017-01-01T09:30:00Z,29.8672,-93.9310,0.0,0.5,169.0,0.7,'11111222,11111222,11111222' 
TCOON,ioos:station:TCOON:524:1,2017-01-01T09:36:00Z,29.8672,-93.9310,0.0,0.5,175.0,1.0,'11111222,11111222,11111222' 
TCOON,ioos:station:TCOON:524:1,2017-01-01T09:42:00Z,29.8672,-93.9310,0.0,0.4,236.0,0.6,'11111222,11111222,11111222' 
TCOON,ioos:station:TCOON:524:1,2017-01-01T09:48:00Z,29.8672,-93.9310,0.0,0.8,244.0,0.9,'11111222,11111222,11111222' 
TCOON,ioos:station:TCOON:524:1,2017-01-01T09:54:00Z,29.8672,-93.9310,0.0,1.0,250.0,1.3,'11111222,11111222,11111222' 
TCOON,ioos:station:TCOON:524:1,2017-01-01T10:00:00Z,29.8672,-93.9310,0.0,1.3,284.0,1.8,'11111222,11111222,11111222' 
TCOON,ioos:station:TCOON:524:1,2017-01-01T10:06:00Z,29.8672,-93.9310,0.0,0.9,220.0,1.5,'11111222,11111222,11111222' 
TCOON,ioos:station:TCOON:524:1,2017-01-01T10:12:00Z,29.8672,-93.9310,0.0,0.7,232.0,1.1,'11111222,11111222,11111222' 
TCOON,ioos:station:TCOON:524:1,2017-01-01T10:18:00Z,29.8672,-93.9310,0.0,0.7,232.0,1.1,'1111122,1111122,1111122' 
TCOON,ioos:station:TCOON:524:1,2017-01-01T10:24:00Z,29.8672,-93.9310,0.0,1.0,248.0,2.7,'11111222,11111222,11111222' 
TCOON,ioos:station:TCOON:524:1,2017-01-01T10:30:00Z,29.8672,-93.9310,0.0,1.3,291.0,1.8,'11111222,11111222,11111222' 
TCOON,ioos:station:TCOON:524:1,2017-01-01T10:36:00Z,29.8672,-93.9310,0.0,0.7,289.0,1.7,'11111222,11111222,11111222' 
TCOON,ioos:station:TCOON:524:1,2017-01-01T10:42:00Z,29.8672,-93.9310,0.0,1.5,222.0,1.9,'11111222,11111222,11111222' 
TCOON,ioos:station:TCOON:524:1,2017-01-01T10:48:00Z,29.8672,-93.9310,0.0,1.8,203.0,2.3,'11111222,11111222,11111222' 
TCOON,ioos:station:TCOON:524:1,2017-01-01T10:54:00Z,29.8672,-93.9310,0.0,1.8,204.0,2.4,'11111222,11111222,11111222' 
TCOON,ioos:station:TCOON:524:1,2017-01-01T11:00:00Z,29.8672,-93.9310,0.0,1.7,214.0,2.3,'11111222,11111222,11111222' 
TCOON,ioos:station:TCOON:524:1,2017-01-01T11:06:00Z,29.8672,-93.9310,0.0,0.7,249.0,1.2,'11111222,11111222,11111222' 
TCOON,ioos:station:TCOON:524:1,2017-01-01T11:12:00Z,29.8672,-93.9310,0.0,0.5,266.0,1.0,'11111222,11111222,11111222' 
TCOON,ioos:station:TCOON:524:1,2017-01-01T11:18:00Z,29.8672,-93.9310,0.0,0.5,266.0,1.0,'1111122,1111122,1111122' 
TCOON,ioos:station:TCOON:524:1,2017-01-01T11:24:00Z,29.8672,-93.9310,0.0,0.7,185.0,1.0,'11111222,11111222,11111222' 
TCOON,ioos:station:TCOON:524:1,2017-01-01T11:30:00Z,29.8672,-93.9310,0.0,0.2,1.0,0.4,'11111222,11111222,11111222' 
TCOON,ioos:station:TCOON:524:1,2017-01-01T11:36:00Z,29.8672,-93.9310,0.0,0.1,150.0,0.6,'11111222,11111222,11111222' 
TCOON,ioos:station:TCOON:524:1,2017-01-01T11:42:00Z,29.8672,-93.9310,0.0,0.3,152.0,0.6,'11111222,11111222,11111222' 
TCOON,ioos:station:TCOON:524:1,2017-01-01T11:48:00Z,29.8672,-93.9310,0.0,1.3,107.0,1.4,'11111222,11111222,11111222' 
TCOON,ioos:station:TCOON:524:1,2017-01-01T11:54:00Z,29.8672,-93.9310,0.0,1.0,136.0,1.4,'11111222,11111222,11111222' 
TCOON,ioos:station:TCOON:524:1,2017-01-01T12:00:00Z,29.8672,-93.9310,0.0,0.5,157.0,1.2,'11111222,11111222,11111222' 
TCOON,ioos:station:TCOON:524:1,2017-01-01T12:06:00Z,29.8672,-93.9310,0.0,0.9,204.0,1.1,'11111222,11111222,11111222' 
TCOON,ioos:station:TCOON:524:1,2017-01-01T12:12:00Z,29.8672,-93.9310,0.0,0.9,225.0,1.1,'11111222,11111222,11111222' 
TCOON,ioos:station:TCOON:524:1,2017-01-01T12:18:00Z,29.8672,-93.9310,0.0,0.9,225.0,1.1,'1111122,1111122,1111122' 
TCOON,ioos:station:TCOON:524:1,2017-01-01T12:24:00Z,29.8672,-93.9310,0.0,0.8,214.0,1.1,'11111222,11111222,11111222' 
TCOON,ioos:station:TCOON:524:1,2017-01-01T12:30:00Z,29.8672,-93.9310,0.0,1.3,230.0,1.5,'11111222,11111222,11111222' 
TCOON,ioos:station:TCOON:524:1,2017-01-01T12:36:00Z,29.8672,-93.9310,0.0,1.5,207.0,2.1,'11111222,11111222,11111222' 
TCOON,ioos:station:TCOON:524:1,2017-01-01T12:42:00Z,29.8672,-93.9310,0.0,0.7,173.0,1.8,'11111222,11111222,11111222' 
TCOON,ioos:station:TCOON:524:1,2017-01-01T12:48:00Z,29.8672,-93.9310,0.0,0.7,193.0,1.4,'11111222,11111222,11111222' 
TCOON,ioos:station:TCOON:524:1,2017-01-01T12:54:00Z,29.8672,-93.9310,0.0,1.0,203.0,1.3,'11111222,11111222,11111222' 
TCOON,ioos:station:TCOON:524:1,2017-01-01T13:00:00Z,29.8672,-93.9310,0.0,0.8,193.0,1.2,'11111222,11111222,11111222' 
TCOON,ioos:station:TCOON:524:1,2017-01-01T13:06:00Z,29.8672,-93.9310,0.0,1.1,203.0,1.4,'11111222,11111222,11111222' 
TCOON,ioos:station:TCOON:524:1,2017-01-01T13:12:00Z,29.8672,-93.9310,0.0,0.2,199.0,0.9,'11111222,11111222,11111222' 
TCOON,ioos:station:TCOON:524:1,2017-01-01T13:18:00Z,29.8672,-93.9310,0.0,0.2,199.0,0.9,'1111122,1111122,1111122' 
TCOON,ioos:station:TCOON:524:1,2017-01-01T13:24:00Z,29.8672,-93.9310,0.0,0.0,227.0,0.8,'11111222,11111222,11111222' 
TCOON,ioos:station:TCOON:524:1,2017-01-01T13:30:00Z,29.8672,-93.9310,0.0,1.5,153.0,2.0,'11111222,11111222,11111222' 
TCOON,ioos:station:TCOON:524:1,2017-01-01T13:36:00Z,29.8672,-93.9310,0.0,2.0,163.0,2.9,'11111222,11111222,11111222' 
TCOON,ioos:station:TCOON:524:1,2017-01-01T13:42:00Z,29.8672,-93.9310,0.0,1.8,163.0,2.5,'11111222,11111222,11111222' 
TCOON,ioos:station:TCOON:524:1,2017-01-01T13:48:00Z,29.8672,-93.9310,0.0,1.8,168.0,2.5,'11111222,11111222,11111222' 
TCOON,ioos:station:TCOON:524:1,2017-01-01T13:54:00Z,29.8672,-93.9310,0.0,1.6,166.0,2.3,'11111222,11111222,11111222' 
TCOON,ioos:station:TCOON:524:1,2017-01-01T14:00:00Z,29.8672,-93.9310,0.0,1.2,168.0,1.8,'11111222,11111222,11111222' 
TCOON,ioos:station:TCOON:524:1,2017-01-01T14:06:00Z,29.8672,-93.9310,0.0,1.5,158.0,2.1,'11111222,11111222,11111222' 
TCOON,ioos:station:TCOON:524:1,2017-01-01T14:12:00Z,29.8672,-93.9310,0.0,1.3,159.0,2.3,'11111222,11111222,11111222' 
TCOON,ioos:station:TCOON:524:1,2017-01-01T14:18:00Z,29.8672,-93.9310,0.0,1.0,163.0,1.6,'11111222,11111222,11111222' 
TCOON,ioos:station:TCOON:524:1,2017-01-01T14:24:00Z,29.8672,-93.9310,0.0,1.0,163.0,1.6,'1111122,1111122,1111122' 
TCOON,ioos:station:TCOON:524:1,2017-01-01T14:30:00Z,29.8672,-93.9310,0.0,1.4,161.0,2.3,'11111222,11111222,11111222' 
TCOON,ioos:station:TCOON:524:1,2017-01-01T14:36:00Z,29.8672,-93.9310,0.0,1.4,179.0,1.9,'11111222,11111222,11111222' 
TCOON,ioos:station:TCOON:524:1,2017-01-01T14:42:00Z,29.8672,-93.9310,0.0,0.8,191.0,1.3,'11111222,11111222,11111222' 
TCOON,ioos:station:TCOON:524:1,2017-01-01T14:48:00Z,29.8672,-93.9310,0.0,1.1,179.0,1.5,'11111222,11111222,11111222' 
TCOON,ioos:station:TCOON:524:1,2017-01-01T14:54:00Z,29.8672,-93.9310,0.0,1.5,146.0,1.7,'11111222,11111222,11111222' 
TCOON,ioos:station:TCOON:524:1,2017-01-01T15:00:00Z,29.8672,-93.9310,0.0,2.0,151.0,2.4,'11111222,11111222,11111222' 
TCOON,ioos:station:TCOON:524:1,2017-01-01T15:06:00Z,29.8672,-93.9310,0.0,2.6,144.0,3.3,'11111222,11111222,11111222' 
TCOON,ioos:station:TCOON:524:1,2017-01-01T15:12:00Z,29.8672,-93.9310,0.0,2.7,144.0,3.9,'11111222,11111222,11111222' 
TCOON,ioos:station:TCOON:524:1,2017-01-01T15:18:00Z,29.8672,-93.9310,0.0,2.7,144.0,3.9,'1111122,1111122,1111122' 
TCOON,ioos:station:TCOON:524:1,2017-01-01T15:24:00Z,29.8672,-93.9310,0.0,1.8,166.0,2.9,'11111222,11111222,11111222' 
TCOON,ioos:station:TCOON:524:1,2017-01-01T15:30:00Z,29.8672,-93.9310,0.0,1.4,197.0,2.0,'11111222,11111222,11111222' 
TCOON,ioos:station:TCOON:524:1,2017-01-01T15:36:00Z,29.8672,-93.9310,0.0,0.8,198.0,1.5,'11111222,11111222,11111222' 
TCOON,ioos:station:TCOON:524:1,2017-01-01T15:42:00Z,29.8672,-93.9310,0.0,1.1,159.0,1.6,'11111222,11111222,11111222' 
TCOON,ioos:station:TCOON:524:1,2017-01-01T15:48:00Z,29.8672,-93.9310,0.0,1.7,153.0,2.1,'11111222,11111222,11111222' 
TCOON,ioos:station:TCOON:524:1,2017-01-01T15:54:00Z,29.8672,-93.9310,0.0,2.5,146.0,3.0,'11111222,11111222,11111222' 
TCOON,ioos:station:TCOON:524:1,2017-01-01T16:00:00Z,29.8672,-93.9310,0.0,2.5,160.0,3.8,'11111222,11111222,11111222' 
TCOON,ioos:station:TCOON:524:1,2017-01-01T16:06:00Z,29.8672,-93.9310,0.0,1.2,166.0,2.8,'11111222,11111222,11111222' 
TCOON,ioos:station:TCOON:524:1,2017-01-01T16:12:00Z,29.8672,-93.9310,0.0,0.5,196.0,1.2,'11111222,11111222,11111222' 
TCOON,ioos:station:TCOON:524:1,2017-01-01T16:18:00Z,29.8672,-93.9310,0.0,0.5,196.0,1.2,'1111122,1111122,1111122' 
TCOON,ioos:station:TCOON:524:1,2017-01-01T16:24:00Z,29.8672,-93.9310,0.0,2.0,138.0,2.6,'11111222,11111222,11111222' 
TCOON,ioos:station:TCOON:524:1,2017-01-01T16:30:00Z,29.8672,-93.9310,0.0,1.7,161.0,2.5,'11111222,11111222,11111222' 
TCOON,ioos:station:TCOON:524:1,2017-01-01T16:36:00Z,29.8672,-93.9310,0.0,1.6,174.0,2.1,'11111222,11111222,11111222' 
TCOON,ioos:station:TCOON:524:1,2017-01-01T16:42:00Z,29.8672,-93.9310,0.0,2.7,146.0,3.2,'11111222,11111222,11111222' 
TCOON,ioos:station:TCOON:524:1,2017-01-01T16:48:00Z,29.8672,-93.9310,0.0,2.7,142.0,3.7,'11111222,11111222,11111222' 
TCOON,ioos:station:TCOON:524:1,2017-01-01T16:54:00Z,29.8672,-93.9310,0.0,1.7,149.0,3.6,'11111222,11111222,11111222' 
TCOON,ioos:station:TCOON:524:1,2017-01-01T17:00:00Z,29.8672,-93.9310,0.0,2.2,128.0,3.1,'11111222,11111222,11111222' 
TCOON,ioos:station:TCOON:524:1,2017-01-01T17:06:00Z,29.8672,-93.9310,0.0,2.1,127.0,3.4,'11111222,11111222,11111222' 
TCOON,ioos:station:TCOON:524:1,2017-01-01T17:12:00Z,29.8672,-93.9310,0.0,1.6,134.0,3.3,'11111222,11111222,11111222' 
TCOON,ioos:station:TCOON:524:1,2017-01-01T17:18:00Z,29.8672,-93.9310,0.0,1.6,134.0,3.3,'1111122,1111122,1111122' 
TCOON,ioos:station:TCOON:524:1,2017-01-01T17:24:00Z,29.8672,-93.9310,0.0,2.4,150.0,3.0,'11111222,11111222,11111222' 
TCOON,ioos:station:TCOON:524:1,2017-01-01T17:30:00Z,29.8672,-93.9310,0.0,3.4,144.0,4.6,'11111222,11111222,11111222' 
TCOON,ioos:station:TCOON:524:1,2017-01-01T17:36:00Z,29.8672,-93.9310,0.0,2.9,149.0,4.5,'11111222,11111222,11111222' 
TCOON,ioos:station:TCOON:524:1,2017-01-01T17:42:00Z,29.8672,-93.9310,0.0,2.9,146.0,4.2,'11111222,11111222,11111222' 
TCOON,ioos:station:TCOON:524:1,2017-01-01T17:48:00Z,29.8672,-93.9310,0.0,2.5,161.0,4.2,'11111222,11111222,11111222' 
TCOON,ioos:station:TCOON:524:1,2017-01-01T17:54:00Z,29.8672,-93.9310,0.0,4.1,144.0,6.1,'11111222,11111222,11111222' 
TCOON,ioos:station:TCOON:524:1,2017-01-01T18:00:00Z,29.8672,-93.9310,0.0,2.9,135.0,5.1,'11111222,11111222,11111222' 
TCOON,ioos:station:TCOON:524:1,2017-01-01T18:06:00Z,29.8672,-93.9310,0.0,1.9,154.0,4.5,'11111222,11111222,11111222' 
TCOON,ioos:station:TCOON:524:1,2017-01-01T18:12:00Z,29.8672,-93.9310,0.0,1.6,263.0,3.8,'11111222,11111222,11111222' 
TCOON,ioos:station:TCOON:524:1,2017-01-01T18:18:00Z,29.8672,-93.9310,0.0,1.2,162.0,2.2,'11111222,11111222,11111222' 
TCOON,ioos:station:TCOON:524:1,2017-01-01T18:24:00Z,29.8672,-93.9310,0.0,1.2,162.0,2.2,'1111122,1111122,1111122' 
TCOON,ioos:station:TCOON:524:1,2017-01-01T18:30:00Z,29.8672,-93.9310,0.0,2.0,264.0,2.4,'11111222,11111222,11111222' 
TCOON,ioos:station:TCOON:524:1,2017-01-01T18:36:00Z,29.8672,-93.9310,0.0,0.9,281.0,2.5,'11111222,11111222,11111222' 
TCOON,ioos:station:TCOON:524:1,2017-01-01T18:42:00Z,29.8672,-93.9310,0.0,0.5,310.0,1.1,'11111222,11111222,11111222' 
TCOON,ioos:station:TCOON:524:1,2017-01-01T18:48:00Z,29.8672,-93.9310,0.0,1.7,358.0,2.7,'11111222,11111222,11111222' 
TCOON,ioos:station:TCOON:524:1,2017-01-01T18:54:00Z,29.8672,-93.9310,0.0,2.4,278.0,3.3,'11111222,11111222,11111222' 
TCOON,ioos:station:TCOON:524:1,2017-01-01T19:00:00Z,29.8672,-93.9310,0.0,1.9,280.0,3.3,'11111222,11111222,11111222' 
TCOON,ioos:station:TCOON:524:1,2017-01-01T19:06:00Z,29.8672,-93.9310,0.0,1.7,219.0,2.3,'11111222,11111222,11111222' 
TCOON,ioos:station:TCOON:524:1,2017-01-01T19:12:00Z,29.8672,-93.9310,0.0,1.5,221.0,2.2,'11111222,11111222,11111222' 
TCOON,ioos:station:TCOON:524:1,2017-01-01T19:18:00Z,29.8672,-93.9310,0.0,1.5,221.0,2.2,'1111122,1111122,1111122' 
TCOON,ioos:station:TCOON:524:1,2017-01-01T19:24:00Z,29.8672,-93.9310,0.0,3.1,242.0,4.3,'11111222,11111222,11111222' 
TCOON,ioos:station:TCOON:524:1,2017-01-01T19:30:00Z,29.8672,-93.9310,0.0,0.7,280.0,2.5,'11111222,11111222,11111222' 
TCOON,ioos:station:TCOON:524:1,2017-01-01T19:36:00Z,29.8672,-93.9310,0.0,1.1,225.0,2.5,'11111222,11111222,11111222' 
TCOON,ioos:station:TCOON:524:1,2017-01-01T19:42:00Z,29.8672,-93.9310,0.0,2.3,185.0,2.8,'11111222,11111222,11111222' 
TCOON,ioos:station:TCOON:524:1,2017-01-01T19:48:00Z,29.8672,-93.9310,0.0,2.1,230.0,2.7,'11111222,11111222,11111222' 
TCOON,ioos:station:TCOON:524:1,2017-01-01T19:54:00Z,29.8672,-93.9310,0.0,1.4,219.0,3.2,'11111222,11111222,11111222' 
TCOON,ioos:station:TCOON:524:1,2017-01-01T20:00:00Z,29.8672,-93.9310,0.0,2.5,213.0,4.0,'11111222,11111222,11111222' 
TCOON,ioos:station:TCOON:524:1,2017-01-01T20:06:00Z,29.8672,-93.9310,0.0,2.3,153.0,3.3,'11111222,11111222,11111222' 
TCOON,ioos:station:TCOON:524:1,2017-01-01T20:12:00Z,29.8672,-93.9310,0.0,3.3,152.0,4.4,'11111222,11111222,11111222' 
TCOON,ioos:station:TCOON:524:1,2017-01-01T20:18:00Z,29.8672,-93.9310,0.0,3.3,152.0,4.4,'1111122,1111122,1111122' 
TCOON,ioos:station:TCOON:524:1,2017-01-01T20:24:00Z,29.8672,-93.9310,0.0,2.1,142.0,2.8,'11111222,11111222,11111222' 